Simultaneous Nadir Overpasses (SNOs) Predictions

Prediction of SNOs between LANDSAT-8 and NOAA-19 Satellite Orbit:

Table of predicted SNOs for the next 14.0 days since TLE Epoch: 3/9/2019
Index Date (LANDSAT-8) Time (LANDSAT-8) Lat,Lon (LANDSAT-8) SZA (LANDSAT-8 ) Date (NOAA-19) Time (NOAA-19) Lat,Lon (NOAA-19) SZA (NOAA-19 ) Distance(km) Time Diff (sec)
1 03/10/2019 05:10:04 -78.82, -58.03 96.54 03/10/2019 05:08:58 -78.85, -61.46 96.71 73.90 66
2 03/10/2019 05:59:37 78.52, 107.99 83.07 03/10/2019 05:59:47 78.55, 107.93 83.10 3.22 10
3 03/12/2019 11:33:19 -78.56,-155.25 97.75 03/12/2019 11:33:16 -78.52,-155.20 97.79 4.18 3
4 03/14/2019 17:07:01 78.58, -58.60 81.40 03/14/2019 17:06:43 78.56, -58.73 81.38 3.36 18
5 03/14/2019 17:56:30 -78.51, 108.67 98.71 03/14/2019 17:57:43 -78.48, 109.07 98.69 9.34 73
6 03/16/2019 22:40:45 -78.57, 37.94 99.48 03/16/2019 22:40:13 -78.57, 37.89 99.49 1.18 32
7 03/16/2019 23:30:12 78.52,-154.70 80.44 03/16/2019 23:31:11 78.54,-154.59 80.48 3.35 59
8 03/19/2019 04:14:27 78.58, 134.55 79.66 03/19/2019 04:13:40 78.58, 134.58 79.65 0.53 47
9 03/19/2019 05:03:55 -78.55, -57.95 100.39 03/19/2019 05:04:40 -78.53, -57.87 100.39 2.71 45
10 03/21/2019 09:48:11 -78.57,-128.91 101.22 03/21/2019 09:47:09 -78.60,-128.84 101.21 3.29 62




NCC Satellite Simultaneous Nadir Overpasses (SNOs) Prediction Service
